Weather History for Fort Drum, NY

Change the Weather History Date:

Tuesday, April 30, 2013

  Actual Average Record
Temperature  
Mean Temperature 60 °F -  
Max Temperature 70 °F 58 °F 78 °F (2004)
Min Temperature 51 °F 38 °F 26 °F (2012)
Degree Days  
Heating Degree Days 4    
Growing Degree Days 10 (Base 50)    
Moisture  
Dew Point 50 °F    
Average Humidity 74    
Maximum Humidity 94    
Minimum Humidity 49    
Precipitation  
Precipitation 0.00 in - - ()
Sea Level Pressure  
Sea Level Pressure 30.19 in    
Wind  
Wind Speed 11 mph (SSE)    
Max Wind Speed 16 mph    
Max Gust Speed -    
Visibility 10 miles    
Events      
Averages and records for this station are not official NWS values.
T = Trace of Precipitation, MM = Missing Value Source: NWS Daily Summary

Daily Weather History Graph

Daily Weather History Graph

Search for Another Location

Airport:

Trip Planner

Search our weather history database for the weather conditions in past years. The results will help you decide how hot, cold, wet, or windy it might be!

Date:

Astronomy

Apr. 30, 2013 Rise Set
Actual Time 5:55 AM EDT 8:05 PM EDT
Civil Twilight 5:23 AM EDT 8:37 PM EDT
Nautical Twilight 4:44 AM EDT 9:16 PM EDT
Astronomical Twilight 4:01 AM EDT 9:59 PM EDT
Moon 12:29 AM EDT (4/30) 10:19 AM EDT (4/30)
Length of Visible Light 15h 13m
Length of Day
14h 09m
Waning Gibbous, 70% of the Moon is Illuminated
Apr 30
Waning Gibbous
May 2
Last Quarter
May 9
New
May 18
First Quarter
May 25
Full

Hourly Weather History & Observations

Time (EDT) Temp. Dew Point Humidity Pressure Visibility Wind Dir Wind Speed Gust Speed Precip Events Conditions
12:11 AM 51.8 °F 50.0 °F 94% 30.12 in 10.0 mi SSE 13.8 mph - N/A   Light Drizzle
12:21 AM 51.8 °F 50.0 °F 94% 30.12 in 10.0 mi SSE 16.1 mph - N/A   Overcast
12:55 AM 51.6 °F 48.9 °F 90% 30.12 in 10.0 mi SSE 16.1 mph - 0.00 in   Mostly Cloudy
1:55 AM 51.4 °F 48.4 °F 89% 30.12 in 10.0 mi SSE 11.5 mph - N/A   Overcast
2:55 AM 51.8 °F 48.0 °F 87% 30.13 in 10.0 mi SSE 10.4 mph - N/A   Overcast
3:55 AM 51.8 °F 48.4 °F 88% 30.14 in 10.0 mi SE 9.2 mph - N/A   Overcast
4:55 AM 52.3 °F 48.4 °F 86% 30.15 in 10.0 mi SSE 10.4 mph - N/A   Overcast
5:55 AM 52.2 °F 48.2 °F 86% 30.17 in 10.0 mi SSE 9.2 mph - N/A   Overcast
6:55 AM 52.5 °F 48.2 °F 85% 30.19 in 10.0 mi SSE 10.4 mph - N/A   Overcast
7:55 AM 52.7 °F 48.2 °F 85% 30.21 in 10.0 mi SSE 10.4 mph - N/A   Overcast
8:55 AM 53.6 °F 48.9 °F 84% 30.21 in 10.0 mi SSE 11.5 mph - N/A   Overcast
9:55 AM 55.4 °F 50.0 °F 82% 30.21 in 10.0 mi SSE 10.4 mph - N/A   Overcast
10:55 AM 61.0 °F 51.8 °F 72% 30.20 in 10.0 mi SE 9.2 mph - N/A   Scattered Clouds
11:55 AM 66.0 °F 51.6 °F 60% 30.20 in 10.0 mi SSW 9.2 mph - N/A   Scattered Clouds
12:55 PM 66.4 °F 51.3 °F 58% 30.20 in 10.0 mi South 5.8 mph - N/A   Overcast
1:55 PM 68.0 °F 50.9 °F 54% 30.21 in 10.0 mi South 9.2 mph - N/A   Scattered Clouds
2:55 PM 70.5 °F 50.7 °F 49% 30.21 in 10.0 mi South 15.0 mph - N/A   Mostly Cloudy
3:55 PM 67.3 °F 50.5 °F 55% 30.22 in 10.0 mi SSW 11.5 mph - N/A   Overcast
4:55 PM 68.2 °F 50.7 °F 54% 30.22 in 10.0 mi South 10.4 mph - N/A   Overcast
5:55 PM 68.0 °F 50.9 °F 54% 30.21 in 10.0 mi SSE 6.9 mph - N/A   Mostly Cloudy
6:55 PM 67.8 °F 50.5 °F 54% 30.20 in 10.0 mi South 11.5 mph - N/A   Mostly Cloudy
7:55 PM 61.9 °F 50.5 °F 66% 30.22 in 10.0 mi South 6.9 mph - N/A   Clear
8:55 PM 60.1 °F 49.8 °F 69% 30.22 in 10.0 mi SSE 6.9 mph - N/A   Clear
9:55 PM 58.8 °F 49.6 °F 72% 30.23 in 10.0 mi SSE 5.8 mph - N/A   Clear
10:55 PM 57.0 °F 48.9 °F 74% 30.25 in 10.0 mi SSE 4.6 mph - N/A   Clear
11:55 PM 55.0 °F 48.7 °F 79% 30.27 in 10.0 mi South 8.1 mph - N/A   Clear